ECMWFNIL_700_spd_102.txt.gz
Wind_Speed
13 14 15 16 17 17 18 19 22 23 23 24 25 25 25 23 21 19 18 16 16 15 15 15 15 15 16 16 17 18 18 18 18 18 18 18 19 19 20 20 20 21
11 12 12 13 15 16 17 19 21 22 23 24 24 23 21 19 18 16 15 15 14 14 14 14 15 15 15 16 17 17 17 17 16 16 17 18 19 19 20 20 20 21
11 12 13 14 14 14 16 18 19 19 20 20 19 18 17 15 14 14 13 13 13 13 13 14 14 15 16 16 16 16 16 15 15 15 17 18 18 19 19 19 20 21
11 13 13 14 14 15 16 16 16 16 16 16 15 14 13 12 12 11 11 12 12 12 13 13 14 15 15 15 15 14 14 14 15 15 16 17 18 18 19 19 20 21
11 12 13 14 15 16 16 15 15 15 14 13 12 11 10 9 9 10 10 11 11 12 13 14 14 14 14 14 13 13 13 14 14 14 16 17 17 18 18 19 20 21
11 13 14 15 15 15 15 14 14 13 12 10 9 8 8 8 8 9 10 11 11 12 13 14 14 13 13 12 12 12 12 13 13 14 15 16 17 18 18 19 20 21
13 14 15 15 15 15 14 13 12 10 9 8 7 7 7 7 8 9 10 11 12 13 13 13 13 12 12 11 11 11 12 13 14 14 15 16 17 18 18 19 20 21
15 15 15 15 15 14 13 12 10 8 7 7 6 6 7 7 9 9 11 12 12 13 13 12 12 11 11 11 11 11 12 13 14 14 15 16 17 18 18 19 20 21
16 16 16 16 15 14 13 11 9 8 7 6 6 7 7 8 9 10 11 12 12 12 12 11 11 10 10 11 11 12 13 14 14 15 15 16 16 17 18 19 20 22
16 17 17 16 15 14 12 10 8 7 6 6 7 7 8 9 10 11 12 12 12 11 10 10 10 10 10 11 12 12 13 14 15 15 15 16 16 17 18 20 21 22
17 17 17 16 14 13 11 9 7 7 7 7 8 8 9 10 11 12 12 11 11 10 9 9 9 10 10 11 12 13 13 14 15 15 15 16 16 17 18 20 22 23
17 17 16 15 14 13 11 8 7 7 8 9 9 9 10 11 12 12 11 11 10 9 9 9 9 10 11 12 12 13 13 14 15 15 16 16 16 17 18 20 22 23
17 17 16 15 14 13 11 8 8 8 9 10 10 11 11 11 11 11 10 10 9 9 9 9 10 10 11 12 12 13 13 14 15 15 16 16 17 18 19 20 21 22
17 17 16 14 14 13 11 9 9 10 10 11 11 11 12 11 11 10 10 10 9 9 9 9 10 10 11 12 12 13 13 13 14 15 16 17 17 18 19 20 20 21
18 17 15 14 14 13 12 10 10 10 11 11 12 12 11 11 10 10 10 9 9 9 9 9 10 11 11 12 12 12 13 13 13 14 15 16 17 18 18 19 20 21
18 17 15 15 15 14 12 11 10 11 11 12 12 12 11 10 10 10 10 9 9 9 9 9 10 11 11 11 11 12 12 12 12 13 15 16 16 17 18 19 20 21
17 16 16 15 15 14 13 12 11 12 12 13 12 12 11 11 10 10 9 9 9 9 9 9 10 10 10 10 11 11 11 12 13 13 14 15 16 17 18 19 20 21
17 17 16 16 15 14 13 13 12 12 13 13 12 12 11 11 10 10 9 9 9 9 9 9 9 9 9 9 10 10 11 12 12 13 14 15 16 17 18 19 20 21
18 18 17 16 15 15 14 13 12 13 13 13 12 12 11 11 10 10 10 9 9 8 8 8 8 8 8 9 9 10 10 11 12 12 13 14 16 17 18 19 20 21
19 18 17 16 16 16 15 14 13 14 14 13 13 12 12 11 11 10 10 9 8 7 7 7 7 7 8 8 9 9 10 10 11 12 13 14 15 16 17 18 19 20
19 18 18 17 16 16 15 14 14 15 14 14 13 13 12 11 11 10 9 8 7 7 6 6 6 7 7 8 8 8 9 10 11 12 12 13 14 15 17 17 18 20
19 18 17 17 17 17 16 15 15 15 15 15 14 13 12 11 11 10 9 8 6 6 5 5 6 6 7 7 7 8 9 10 11 11 12 13 14 15 16 17 18 20
20 18 17 17 17 17 16 15 15 15 15 15 14 13 12 12 11 10 8 7 5 5 4 5 5 5 6 6 6 7 8 9 10 11 11 12 13 14 15 17 18 19
19 18 17 18 17 17 16 16 16 16 16 15 15 14 13 12 11 9 8 6 5 4 4 4 4 5 5 5 6 7 8 9 9 10 10 11 12 13 15 17 18 18
20 19 18 18 18 17 17 16 17 17 17 16 15 14 14 12 10 9 7 5 4 4 4 4 4 4 4 4 5 6 7 8 8 9 9 10 12 13 15 16 17 19
20 19 18 18 18 18 17 18 18 18 17 16 15 15 14 12 10 8 6 5 4 4 4 4 3 3 3 4 5 5 6 6 7 8 8 10 12 14 15 16 17 19

ECMWFNIL_700_spd_105.txt.gz
Wind_Speed
11 11 11 12 13 13 14 15 16 18 19 19 20 21 21 22 23 24 24 23 21 19 17 16 16 15 15 15 15 16 17 18 18 18 18 18 18 19 20 21 21 22
11 10 10 10 10 11 12 13 15 17 18 19 20 21 22 23 23 22 22 20 18 16 15 14 14 14 14 15 15 16 17 18 17 17 17 18 18 19 20 21 22 22
9 9 9 10 10 11 11 13 14 16 17 19 20 21 21 21 20 19 17 16 14 13 13 13 13 13 14 15 15 16 17 17 17 17 17 18 19 19 20 21 22 22
9 9 10 11 11 12 12 13 15 16 17 17 18 18 17 17 16 15 14 13 12 12 12 12 13 14 14 15 15 16 16 16 16 17 17 18 19 20 21 21 22 22
9 9 10 10 11 12 13 14 15 15 15 15 14 14 13 13 13 12 12 12 11 11 12 12 13 14 15 15 15 15 15 16 16 17 18 19 20 20 20 21 21 21
10 9 9 10 11 12 13 14 15 14 13 13 12 12 12 11 11 11 11 11 11 11 12 13 14 15 15 15 15 14 15 16 17 18 18 19 20 20 20 20 20 21
11 10 10 11 12 13 14 14 15 14 13 12 13 12 11 11 10 10 10 11 11 12 13 14 14 14 14 14 14 13 14 15 17 18 19 19 19 19 19 19 20 20
13 13 13 13 13 14 14 15 14 14 13 12 12 12 11 10 10 10 11 11 11 12 13 14 14 14 13 13 13 13 14 15 17 18 19 19 19 18 18 18 19 20
13 13 14 14 14 15 15 15 14 13 13 12 12 11 10 10 10 10 11 11 12 13 14 14 14 13 13 13 13 13 14 15 17 18 18 18 17 17 17 18 19 20
13 14 15 15 15 16 16 15 14 13 13 13 12 11 11 10 10 10 11 12 13 14 14 14 13 13 12 12 13 14 15 16 16 16 16 16 16 16 17 18 19 20
15 16 17 17 17 17 16 15 14 13 13 14 13 12 11 10 10 11 11 13 14 14 14 13 12 12 12 12 13 14 15 16 15 15 15 15 16 16 17 17 18 19
17 17 18 18 18 18 17 16 15 15 15 15 14 12 11 10 10 11 12 14 14 14 13 12 12 11 12 12 14 15 15 15 14 13 14 14 15 16 16 17 18 19
18 18 19 19 19 18 17 16 16 16 15 15 13 12 11 11 11 12 13 14 14 14 13 12 11 11 12 13 13 14 15 14 13 13 13 14 14 15 16 17 18 19
18 19 19 20 20 19 18 17 17 16 16 14 13 13 12 11 12 12 13 14 14 13 12 12 12 12 12 13 13 13 13 13 12 12 13 13 14 14 15 16 17 19
19 19 19 20 20 20 18 18 18 17 16 15 14 13 12 12 12 13 13 14 14 13 12 12 12 12 12 13 13 12 12 12 12 12 12 13 13 14 15 16 17 18
19 19 20 21 21 20 19 19 18 17 16 15 15 14 13 13 13 13 14 14 14 13 13 12 12 12 12 12 12 11 10 11 12 12 12 12 12 13 14 15 16 18
20 20 21 22 22 21 20 19 19 18 17 15 15 14 13 13 13 13 14 14 14 14 13 12 11 11 12 11 11 10 9 10 11 11 11 11 11 12 13 14 15 17
21 21 22 22 22 21 20 19 19 18 17 16 15 15 14 14 13 14 14 14 15 14 13 12 11 11 11 10 9 9 9 10 10 10 10 10 10 11 12 14 15 16
21 22 23 23 23 22 20 19 19 19 17 16 16 15 15 14 14 15 15 15 15 14 12 11 10 11 10 9 8 8 9 9 9 9 9 9 10 11 12 13 14 15
21 22 23 23 23 22 20 20 19 19 17 16 16 16 15 15 15 15 15 15 14 13 12 11 10 10 9 8 8 8 8 9 8 8 8 9 9 10 12 13 14 15
20 21 22 22 22 21 21 20 20 19 17 16 16 16 16 16 15 15 15 15 14 13 11 10 9 9 8 8 8 8 8 8 7 7 8 8 9 10 12 13 14 15
19 20 20 21 21 21 21 20 19 18 17 16 17 16 16 16 15 15 16 15 14 12 11 10 9 8 8 8 7 7 7 7 6 7 7 8 8 10 11 12 13 14
18 18 19 21 21 20 20 19 19 19 17 17 17 16 16 16 16 16 16 14 13 12 10 9 8 8 8 8 7 6 6 5 5 6 6 7 8 9 11 12 12 13
18 18 19 20 20 20 20 19 19 19 17 17 17 17 17 17 16 16 15 13 12 11 10 8 8 8 8 7 6 6 5 5 5 5 6 6 7 9 10 11 12 12
20 19 19 19 20 21 20 19 19 18 18 17 18 18 18 18 17 16 14 13 12 10 9 8 8 8 8 6 6 6 4 4 4 4 5 6 7 8 9 10 11 12
20 19 18 19 21 21 21 20 19 19 18 18 19 19 18 17 17 16 14 12 11 10 9 8 8 8 7 6 6 5 4 3 3 3 4 5 6 8 8 9 11 13

ECMWFNIL_700_spd_108.txt.gz
Wind_Speed
10 9 9 10 11 12 12 12 12 13 14 15 15 15 16 16 16 17 17 17 17 18 17 16 16 15 15 14 14 14 14 15 16 17 17 17 17 17 18 19 19 20
11 10 11 11 11 11 11 11 11 12 13 14 14 14 15 16 17 17 17 16 16 16 15 14 14 13 13 13 14 14 15 16 17 17 17 17 17 18 19 20 21 22
12 12 11 11 10 9 9 9 10 11 11 12 13 14 15 16 16 16 15 15 14 13 13 12 12 12 13 13 14 15 16 16 16 16 17 17 18 19 20 21 22 22
12 12 11 10 8 8 9 9 10 10 11 12 13 14 14 14 14 14 13 13 12 11 11 11 11 12 13 14 14 15 16 16 16 16 17 18 19 20 21 22 22 22
12 12 10 8 8 8 9 9 10 10 11 12 13 13 13 13 13 12 12 11 10 9 9 10 11 12 13 14 14 15 15 16 16 16 17 19 20 21 21 21 21 21
13 12 10 8 7 8 8 9 9 10 11 12 12 12 12 12 11 11 10 9 9 8 9 10 11 12 13 14 15 15 15 16 16 17 18 19 20 20 21 21 20 20
14 13 10 8 8 8 9 9 10 11 11 12 12 12 12 12 11 10 9 9 8 8 9 10 12 13 14 14 15 15 15 16 16 17 18 19 20 20 20 19 19 19
15 13 12 10 10 10 10 11 11 12 12 13 13 12 12 12 11 10 9 8 8 8 9 11 12 12 13 14 15 15 16 16 17 17 18 19 19 19 18 18 18 18
15 14 13 12 11 10 11 12 13 13 14 14 13 13 13 12 11 10 10 9 9 10 10 11 11 12 13 14 15 15 16 16 17 18 18 18 18 17 17 17 17 17
16 15 13 12 11 11 12 13 14 15 15 15 15 14 13 12 11 11 10 10 10 10 10 10 11 12 13 14 15 15 15 16 17 17 18 18 17 16 16 16 16 17
17 15 14 13 13 13 14 15 16 17 17 17 16 15 14 13 12 11 11 11 11 11 10 10 11 12 13 14 15 15 15 16 17 17 17 16 15 15 15 16 16 16
17 16 15 15 15 15 16 17 18 18 19 19 18 16 15 13 13 12 12 12 12 11 10 10 11 12 13 14 14 14 15 15 16 16 16 15 14 14 15 15 15 16
18 17 16 16 16 16 17 18 19 20 20 20 18 17 15 14 14 13 13 13 12 11 10 10 12 12 13 13 13 14 15 15 16 15 14 13 14 14 14 14 15 15
19 18 18 18 18 18 18 19 20 21 21 20 18 17 16 16 15 14 13 13 12 11 11 11 12 12 13 13 13 14 15 15 14 13 13 13 13 13 13 13 14 14
21 20 20 20 20 19 19 20 21 21 21 20 19 18 18 17 16 14 14 13 13 12 11 11 11 12 12 13 13 14 15 14 13 12 12 12 12 12 12 13 13 14
23 23 22 22 21 20 19 20 21 21 21 20 19 19 19 18 16 15 14 14 14 13 12 11 11 11 12 12 13 14 14 13 12 11 11 11 12 12 12 12 12 13
26 26 24 23 21 20 19 20 21 21 22 21 20 20 19 18 16 15 15 14 14 13 11 11 11 11 12 12 13 14 13 12 11 10 10 10 10 11 11 11 11 12
28 27 25 22 21 19 19 19 20 22 22 22 21 20 19 18 16 15 15 15 14 12 11 11 11 11 12 12 13 14 13 11 10 10 10 9 9 10 10 10 10 11
28 26 24 21 20 19 18 19 21 22 23 22 21 20 19 18 17 16 15 15 14 12 11 11 11 11 11 12 13 13 12 11 10 9 9 9 9 9 9 9 10 10
28 25 23 22 20 20 20 20 21 23 23 22 21 20 19 18 17 16 16 15 14 12 12 11 11 11 11 12 12 12 12 10 9 9 8 8 8 8 8 8 8 9
27 24 24 23 22 21 21 21 22 23 24 22 21 20 20 19 18 17 16 15 14 13 13 12 11 11 11 11 11 12 11 10 9 8 8 7 8 8 8 7 7 8
25 24 24 23 22 21 20 20 22 23 23 22 21 20 19 19 18 17 16 15 14 13 13 12 11 11 10 11 11 11 11 10 8 8 7 7 7 7 7 6 7 7
26 25 25 23 21 20 20 20 22 22 22 21 20 20 19 19 18 17 16 15 14 14 13 12 11 11 10 10 11 11 10 9 8 7 7 7 7 7 6 6 6 7
26 24 23 22 20 20 20 20 21 22 21 21 20 20 20 19 18 17 16 15 15 14 14 12 11 11 10 10 10 10 10 9 8 7 7 7 7 7 6 5 5 6
26 24 23 22 21 20 20 20 21 22 22 21 21 21 21 20 19 18 17 16 16 15 14 12 11 11 10 10 10 10 9 9 8 7 6 6 7 6 5 5 5 6
25 24 23 23 21 21 21 21 22 23 22 22 22 21 21 20 19 18 17 17 16 15 14 12 12 11 10 10 10 9 9 9 8 7 6 6 7 6 4 4 5 6

ECMWFNIL_700_spd_111.txt.gz
Wind_Speed
17 17 15 15 14 13 13 13 13 13 14 15 15 14 13 13 13 13 14 14 15 14 13 12 11 10 9 9 9 9 10 11 12 13 14 14 14 15 15 15 16 16
18 17 16 15 14 13 13 13 13 13 13 13 13 12 12 12 12 13 14 14 14 13 12 11 10 9 8 7 8 9 10 11 13 13 14 14 14 14 15 15 16 17
18 17 16 15 13 12 12 12 12 12 11 11 10 10 10 11 12 13 13 13 13 12 11 10 9 7 7 7 8 10 11 12 13 13 13 13 14 14 15 16 16 17
17 17 15 14 13 12 11 11 11 10 9 9 9 9 9 10 11 12 12 12 12 11 10 9 7 7 7 8 9 10 12 12 12 13 13 13 14 15 15 16 17 17
17 15 14 13 12 11 10 9 8 7 7 8 8 8 9 10 11 11 11 11 10 10 9 8 7 7 8 9 10 11 11 12 12 12 13 13 14 15 16 17 17 17
16 14 13 13 12 10 8 7 6 6 7 7 8 8 9 10 10 10 10 10 9 9 9 8 8 8 9 10 10 11 11 11 12 12 13 14 15 16 16 17 17 16
16 14 14 13 12 9 8 7 6 7 7 7 8 8 9 9 10 10 10 9 10 10 10 9 9 9 10 10 10 10 10 11 11 12 13 14 15 16 17 17 16 16
16 15 15 14 12 10 9 8 8 8 8 8 8 9 9 10 10 10 10 10 11 11 11 11 10 10 10 10 10 10 10 11 11 12 13 15 16 16 16 16 15 15
17 15 16 15 13 12 11 10 10 9 9 9 10 10 10 10 11 11 11 12 12 12 11 11 11 11 11 10 10 9 10 10 11 12 14 15 15 16 15 15 14 14
18 16 16 16 15 14 13 12 11 11 11 11 11 12 12 12 12 12 13 12 12 12 12 11 12 12 12 10 9 9 9 10 11 12 14 14 15 14 14 13 13 13
19 18 18 17 16 16 15 14 13 13 12 13 13 14 14 13 13 13 13 13 13 13 12 12 12 12 12 11 9 9 10 10 11 12 13 14 14 13 13 12 12 12
20 19 19 19 18 18 17 16 15 15 14 15 15 15 15 14 14 14 13 13 13 13 13 13 13 13 12 11 10 9 9 10 11 12 13 13 13 13 12 12 11 12
22 21 21 20 20 19 18 17 16 15 16 16 17 17 16 15 15 14 14 14 14 14 14 13 13 13 12 11 10 9 9 10 11 11 12 13 13 12 11 11 11 11
23 23 22 22 21 20 19 18 17 16 17 18 18 17 16 16 16 15 15 15 15 15 15 14 13 13 12 11 10 9 9 9 10 11 12 12 12 12 11 10 10 11
24 24 23 22 22 21 20 19 18 18 18 19 19 18 17 17 17 16 16 16 16 16 15 14 14 13 12 12 10 9 9 9 10 11 11 12 12 11 10 10 10 10
25 25 24 23 23 22 21 21 20 20 20 20 19 18 17 18 18 17 17 17 17 17 15 15 14 13 12 12 11 9 9 8 9 10 11 11 11 10 9 9 9 10
26 26 26 25 24 24 23 22 22 21 21 20 20 19 18 18 18 18 18 18 18 17 16 15 14 13 13 12 11 10 8 8 9 10 10 10 9 9 9 9 9 10
27 27 27 26 25 25 24 23 22 22 21 21 20 19 19 19 19 18 18 19 18 17 16 16 14 14 13 12 11 10 8 8 9 9 10 9 9 8 8 8 8 9
29 28 28 26 25 25 24 23 22 21 21 21 20 20 20 20 19 19 19 19 19 18 17 16 15 14 13 13 11 10 9 9 9 9 9 8 8 8 8 8 8 8
30 29 28 27 26 25 24 23 22 22 22 22 21 20 20 20 19 20 20 20 19 18 17 16 15 14 13 13 11 10 9 9 9 9 8 7 8 7 7 7 7 8
31 29 28 28 27 26 25 24 23 23 24 23 22 21 21 20 20 20 21 20 19 18 17 16 15 14 13 13 11 10 10 9 9 8 7 7 7 7 7 7 7 7
29 27 27 28 27 26 26 26 25 25 25 23 22 21 21 21 21 21 20 20 19 18 17 16 15 14 13 13 12 11 10 10 9 8 7 7 7 6 6 7 6 6
27 27 28 28 28 27 26 27 28 27 25 23 21 21 21 21 21 21 20 20 19 19 18 16 15 14 14 13 12 12 11 10 8 7 7 6 6 6 6 7 6 6
26 27 27 27 28 27 26 27 28 26 23 22 22 22 21 22 22 21 20 20 20 20 19 17 15 15 14 13 13 12 10 9 8 8 7 6 6 6 6 6 6 5
25 26 26 26 26 26 26 28 26 22 20 22 23 22 21 22 22 22 21 21 20 20 19 18 16 15 14 13 13 12 10 9 9 8 7 6 6 6 6 7 6 5
25 26 26 25 25 25 27 26 23 19 20 22 22 22 21 22 22 22 22 21 21 21 20 19 17 16 14 13 12 11 10 10 9 8 7 7 7 6 7 7 6 5

ECMWFNIL_700_spd_114.txt.gz
Wind_Speed
19 20 20 20 18 15 14 14 14 14 15 15 16 16 16 16 15 15 14 14 13 13 13 14 13 12 10 9 8 8 8 8 8 9 10 10 11 11 12 12 13 14
21 21 21 19 16 15 14 13 13 14 15 15 15 15 16 16 15 15 14 13 13 14 14 13 12 11 10 9 9 8 8 8 8 9 10 10 10 11 12 13 13 14
21 21 19 18 16 15 13 13 14 14 14 14 14 14 14 14 14 13 13 13 13 13 13 12 11 11 10 9 9 8 8 8 9 9 10 10 10 11 12 12 13 14
21 20 19 17 16 14 13 13 13 13 13 12 12 12 13 13 13 12 12 12 12 12 12 12 11 11 10 10 9 9 8 9 9 10 10 10 10 11 11 12 13 14
21 20 19 17 15 14 13 13 13 12 12 12 12 12 12 12 11 10 10 11 11 12 12 12 11 11 10 10 10 9 9 9 10 10 10 10 10 11 11 12 13 13
20 19 18 17 15 14 13 13 12 12 12 12 12 11 10 10 9 9 9 10 11 12 12 12 11 11 11 11 10 10 10 10 11 10 10 9 9 10 11 12 12 13
20 19 18 16 15 14 14 14 13 12 12 11 10 9 9 8 8 9 10 10 11 11 11 11 11 11 12 11 11 11 11 11 11 10 9 9 9 10 10 11 12 13
21 20 18 16 15 16 15 15 13 12 11 10 9 8 8 8 8 9 10 11 11 11 11 11 12 12 12 12 12 12 12 12 11 10 9 9 9 10 10 11 12 13
22 21 18 16 16 17 17 16 14 12 11 10 9 8 8 9 9 10 11 11 11 11 12 12 13 13 13 13 13 13 12 12 11 10 9 9 9 10 10 11 11 12
23 21 19 17 18 19 19 17 15 13 12 11 10 9 10 10 11 11 11 12 12 12 13 13 14 14 14 15 14 13 13 12 10 10 9 9 9 10 10 10 11 11
23 22 20 19 19 20 20 18 15 14 13 12 11 11 12 12 12 13 13 13 13 14 14 15 15 16 16 15 14 13 13 11 10 10 10 10 9 9 10 10 10 10
23 22 21 20 20 21 21 19 17 16 15 14 14 14 14 14 14 14 14 14 15 15 16 16 17 17 17 15 14 13 12 11 10 11 10 10 9 9 9 9 9 9
23 22 22 21 21 22 21 20 18 18 17 17 16 16 15 16 16 15 15 16 16 17 17 18 18 18 17 15 14 13 12 11 10 10 10 10 10 9 9 9 9 8
23 22 22 22 22 22 22 21 20 20 19 19 18 17 16 17 17 17 17 17 17 18 18 19 18 18 17 16 14 13 12 11 11 10 11 10 10 9 8 8 8 8
23 23 23 23 23 23 23 22 22 22 21 21 19 18 18 18 18 18 18 18 18 19 19 19 19 18 17 16 14 13 12 11 11 10 11 11 10 9 8 8 7 7
24 24 24 24 24 24 24 24 24 24 23 22 21 19 19 19 19 19 19 19 19 19 19 19 19 18 17 16 14 13 12 12 11 11 11 11 10 9 8 8 7 7
25 25 25 26 26 26 26 26 25 25 24 23 21 20 20 20 20 20 20 20 20 20 20 20 19 18 17 16 15 14 13 12 11 11 11 11 10 10 8 8 7 7
26 26 26 27 26 26 27 27 27 26 25 23 22 21 20 20 20 20 20 20 20 20 20 20 19 19 18 16 15 14 13 13 12 11 11 11 10 10 8 8 7 7
27 27 27 28 27 27 28 28 27 25 24 23 22 21 20 19 19 19 19 20 21 21 21 20 20 19 18 16 15 15 14 13 13 12 11 11 11 10 8 7 7 6
29 28 28 28 28 28 28 27 26 25 24 23 21 20 20 20 20 19 19 20 21 21 21 20 20 20 19 17 16 16 15 14 13 12 12 12 11 9 8 7 7 7
30 29 29 29 29 28 28 26 25 24 23 22 21 21 21 21 20 19 19 20 21 21 21 21 21 21 20 18 17 16 16 14 13 13 12 11 10 9 7 7 7 7
32 31 31 31 30 29 28 26 25 25 25 24 23 23 23 22 20 18 18 19 21 22 22 22 22 22 21 19 18 17 16 15 14 13 12 11 10 8 8 7 7 7
33 33 32 31 30 29 28 26 25 26 26 26 25 25 25 23 20 18 19 21 23 23 22 22 23 22 21 20 19 18 17 16 15 13 11 10 9 9 8 8 8 8
32 32 32 31 30 29 28 27 27 27 27 27 26 26 27 24 20 19 21 23 23 23 23 23 23 23 23 21 20 18 18 16 15 13 11 10 9 9 9 8 8 8
27 29 30 29 28 29 29 29 29 28 28 28 28 28 27 24 20 19 21 22 22 23 23 23 24 24 23 21 19 18 17 16 14 13 11 10 10 10 9 9 9 9
29 30 29 26 27 28 28 28 27 26 25 25 27 27 24 21 19 19 20 21 22 23 23 24 24 23 22 21 19 18 17 16 15 13 12 12 12 11 11 10 10 10

ECMWFNIL_700_spd_117.txt.gz
Wind_Speed
16 17 18 18 16 17 19 17 16 15 16 16 17 18 17 17 17 18 17 17 16 16 17 17 17 16 16 16 15 15 15 14 13 12 12 12 12 13 13 13 12 12
17 19 20 19 16 16 18 16 15 15 16 17 17 17 16 17 18 18 18 18 17 17 18 17 17 17 16 16 15 15 15 14 13 12 12 12 12 13 13 13 12 12
18 19 20 19 17 16 16 16 15 15 16 16 16 15 16 17 17 18 18 18 18 18 18 17 17 16 16 16 16 15 14 14 13 13 13 12 13 13 13 13 12 11
19 19 20 19 18 17 16 16 16 16 16 15 14 15 15 16 17 17 17 17 17 17 17 17 16 15 16 16 16 15 14 14 13 13 13 13 13 13 13 13 12 11
21 21 20 20 19 18 17 16 16 16 15 14 14 15 15 15 15 16 16 16 17 16 15 15 15 15 16 16 15 15 15 14 13 13 13 13 13 13 13 12 12 11
22 22 21 20 19 18 17 17 16 16 15 14 14 14 14 14 14 15 15 15 15 14 13 14 14 15 15 16 16 15 15 14 13 14 14 14 14 13 13 12 11 11
23 23 21 19 19 18 17 17 17 16 15 14 13 13 14 14 14 14 14 14 13 12 13 14 14 15 15 16 16 16 15 14 14 14 14 14 14 13 13 12 11 10
23 23 21 20 19 18 18 18 18 16 15 14 13 13 14 14 14 14 13 12 12 12 13 14 14 15 16 16 16 15 15 15 15 15 14 14 14 13 13 12 11 10
23 23 22 21 20 19 19 19 18 17 15 14 14 14 14 13 13 13 12 11 11 12 13 14 15 16 16 16 16 16 16 15 16 15 15 15 14 13 12 12 11 10
23 23 23 22 21 20 20 20 19 17 16 15 15 14 14 13 12 12 11 11 12 12 14 15 15 16 16 16 16 16 16 16 16 16 16 15 14 12 12 11 11 10
23 24 23 23 22 21 21 20 19 18 17 17 16 15 14 13 12 11 11 12 13 13 14 15 16 16 16 16 17 17 17 17 17 17 16 15 13 12 12 11 11 10
24 24 23 23 23 22 21 20 20 20 19 18 17 16 16 14 13 13 13 13 14 15 15 16 16 16 17 17 17 17 17 17 18 17 16 15 14 13 12 11 11 10
24 24 24 24 23 23 22 21 21 21 21 20 19 18 17 16 15 15 14 15 15 16 16 16 16 17 17 18 18 18 18 18 18 17 16 15 14 13 12 12 11 11
25 25 25 24 25 25 23 22 22 21 22 22 21 20 19 18 17 16 16 16 16 16 17 16 17 18 18 19 19 19 19 19 18 17 16 15 14 13 13 12 12 11
26 26 25 25 26 26 25 24 23 22 23 24 23 22 21 19 18 17 17 17 17 17 17 17 18 18 19 19 20 20 20 19 18 17 17 15 14 14 13 12 12 11
27 27 26 26 26 25 25 25 24 23 24 24 24 23 22 20 19 19 18 18 18 18 18 18 19 19 19 20 21 21 20 19 18 18 17 16 15 14 14 13 12 11
28 27 27 26 26 25 25 26 26 25 25 25 25 23 22 21 20 20 19 19 18 18 18 19 19 19 20 21 22 22 21 20 19 19 18 17 16 15 14 13 11 10
28 28 27 27 26 25 25 26 27 26 26 26 25 24 24 23 21 20 20 19 19 18 18 19 19 20 21 22 22 22 21 20 20 19 19 19 17 16 15 13 11 10
28 28 28 27 26 25 26 27 27 26 26 25 24 25 25 23 21 21 20 19 18 18 18 19 19 20 22 22 23 22 22 21 20 20 20 19 18 16 16 14 12 11
27 28 28 28 27 26 26 27 27 26 26 26 25 25 24 23 21 20 19 18 18 18 19 19 19 21 23 23 23 22 22 22 21 20 20 19 17 16 16 15 13 12
27 28 28 28 28 27 27 27 27 27 27 26 25 25 24 23 22 20 19 20 20 20 20 20 20 22 22 22 22 22 22 21 20 20 19 18 16 16 15 14 12 12
27 27 28 29 29 29 28 28 28 27 26 26 26 26 24 23 22 22 21 21 22 21 21 20 20 21 22 21 22 22 21 21 20 19 18 17 16 16 15 14 13 13
28 28 28 29 29 29 30 29 28 27 26 25 25 26 25 25 24 23 23 24 23 23 22 20 20 21 21 21 22 21 21 20 20 19 18 18 16 15 15 15 14 12
28 28 29 29 29 30 31 30 29 28 27 26 25 25 26 27 25 25 26 26 24 23 21 20 20 21 21 21 21 21 20 20 20 19 19 18 17 16 16 16 15 13
28 29 29 30 30 30 31 30 29 28 27 26 26 26 26 26 26 27 28 26 24 23 21 20 20 21 21 20 20 21 21 21 21 20 20 19 17 17 17 17 16 14
28 28 29 29 29 29 30 29 29 28 28 27 27 26 26 25 26 27 27 26 25 23 21 20 20 20 21 20 20 21 21 21 21 21 21 19 18 18 18 17 17 16

ECMWFNIL_700_spd_123.txt.gz
Wind_Speed
15 15 16 16 16 15 14 14 13 13 14 15 16 15 13 14 15 15 15 14 15 14 12 12 12 12 13 13 14 14 15 15 15 15 14 14 13 13 13 13 14 15
15 16 17 16 16 15 14 14 14 13 14 15 17 16 15 14 15 15 15 16 16 15 14 13 14 14 14 15 15 15 16 16 15 15 14 14 13 13 13 14 15 16
16 17 17 16 15 15 14 14 14 13 13 15 16 16 15 15 15 15 16 17 17 16 16 15 15 16 16 15 15 16 16 16 15 14 14 13 13 13 14 15 16 17
17 18 18 16 15 14 15 15 14 13 13 14 16 16 15 15 15 16 17 17 17 17 17 17 17 17 17 16 16 16 16 16 15 14 13 13 13 14 15 16 16 17
18 19 18 17 15 15 15 15 14 14 14 15 16 16 15 15 15 16 17 17 17 18 18 18 18 18 17 17 17 17 16 15 14 13 13 13 14 15 15 16 17 18
19 19 18 17 16 16 16 15 14 14 15 15 16 16 15 14 15 16 17 17 17 18 18 18 18 18 18 17 17 16 15 14 13 13 13 13 14 15 16 17 18 18
20 20 18 17 16 16 16 15 14 15 15 16 16 15 15 15 15 16 16 17 17 18 18 18 18 17 17 17 16 16 15 13 13 13 13 14 15 16 17 18 18 18
20 20 19 17 17 16 16 15 15 15 16 16 16 16 16 16 16 16 16 17 17 17 17 17 17 17 17 16 16 15 14 12 12 13 13 14 16 17 18 18 19 19
21 21 19 18 18 16 16 16 16 15 16 17 17 17 17 16 16 16 16 16 16 16 16 15 15 16 15 15 15 14 12 11 12 13 14 15 16 17 18 18 19 19
21 21 20 19 19 17 17 17 16 16 17 18 18 18 17 16 16 16 16 15 15 15 14 14 15 15 15 14 13 12 11 11 12 13 14 15 16 17 18 19 19 18
22 21 20 20 19 18 18 17 16 17 18 19 18 18 18 16 16 16 15 14 14 14 14 14 14 14 13 13 11 10 10 11 12 13 14 15 17 18 18 19 18 18
22 21 21 21 20 19 19 18 17 19 20 20 19 19 18 16 17 17 15 15 14 14 14 14 14 13 12 11 10 10 11 11 12 13 14 15 17 18 18 18 18 17
22 21 21 21 20 20 19 18 19 21 21 21 20 19 18 17 17 17 16 15 15 14 14 14 14 13 12 11 11 11 11 12 12 13 14 15 16 17 18 18 17 17
22 21 22 22 21 20 19 19 21 22 22 22 21 19 18 18 19 18 17 17 16 15 15 15 15 14 13 12 12 11 12 12 12 13 14 15 16 17 17 17 17 17
23 23 23 23 23 22 20 21 22 23 22 22 21 20 18 19 19 19 19 19 17 16 17 17 17 15 14 14 13 12 12 12 12 13 14 15 16 17 16 16 17 17
24 24 24 23 24 23 22 21 22 22 22 22 21 20 19 19 20 20 20 20 19 18 19 19 19 17 16 16 14 13 12 12 11 12 14 16 16 16 15 16 18 17
25 25 24 24 25 24 22 21 21 21 20 21 22 22 21 20 20 19 20 21 20 20 21 21 20 19 18 16 14 13 12 11 11 13 14 16 16 15 15 16 17 17
25 25 25 25 26 25 22 21 20 20 20 20 22 22 22 21 20 20 21 21 21 21 22 22 22 20 19 16 14 12 11 11 12 13 13 14 15 14 15 16 17 17
25 25 25 26 27 25 22 21 20 19 19 20 21 22 23 23 22 22 22 22 21 22 23 23 23 22 20 17 15 14 13 13 13 12 13 14 13 13 14 17 17 16
26 26 26 27 27 26 23 21 20 19 19 19 21 22 22 22 23 24 24 23 23 24 24 25 25 23 21 20 18 17 16 16 14 13 13 14 13 13 14 16 16 16
26 26 27 28 28 26 24 22 20 19 19 19 21 21 21 22 24 24 24 25 25 25 26 25 24 23 23 22 21 21 20 18 15 13 14 15 14 13 14 15 15 15
26 27 29 29 28 27 25 22 20 19 19 20 21 22 22 23 24 25 25 25 25 26 25 23 22 23 23 21 22 24 23 18 14 13 14 15 14 13 13 14 15 15
26 28 29 29 28 27 25 22 20 20 19 20 22 22 23 24 25 26 26 25 24 24 23 21 21 22 22 20 20 21 20 17 15 14 15 15 14 13 12 14 15 14
26 28 29 30 29 27 24 22 21 21 20 21 22 23 24 25 26 26 27 26 24 23 22 22 22 23 22 20 19 18 17 17 16 16 16 15 14 13 13 14 15 14
25 29 31 30 27 25 23 23 23 22 21 21 22 24 25 25 26 26 25 23 20 19 19 18 18 19 19 18 18 18 17 16 16 17 16 14 13 13 14 14 13 14
25 29 29 26 24 24 24 24 23 22 21 22 23 24 25 25 25 24 23 21 19 17 16 14 12 13 15 14 14 15 15 15 16 16 15 13 13 13 14 13 12 14